TDRS 5

Last updated on Sun Jun 21 2026 00:02:59 GMT+0000 (Coordinated Universal Time)

1 21639U 91054B 26171.48609933 .00000073 00000+0 00000+0 0 9997 2 21639 14.0706 353.7579 0006201 274.9854 7.2953 1.00276037127741
UTC large
Height (km)
Speed (km/s)
/
Latitude / Longitude
Inclination (degrees)
Orbital Period (minutes)
Azimuth
Elevation
Range (km)
Doppler Factor

Next 0 passes for location: London (51.5072 / 0.1276)

No passes found over London.
TDRS 5